Terug naar catalogus

STARLINK-2336

ActiefCommunicatieVLEO
NORAD 47879·PAYLOAD·🇺🇸 United States

Gelanceerd Mar 14, 2021 vanaf Cape Canaveral Space Force Station

Loading…

Volgende Passages (komende 24 uur)

TLE

VersSource: CelesTrak SupGP

Epoch: Sep 15, 2026, 01:08 UTC

1 47879C 21021V   26258.04770833  .03259400  00000+0  12076-2 0  2584
2 47879  53.1361  72.7526 0011918 291.8971  89.7665 16.23556693    10

Volg STARLINK-2336 in realtime met AllMySat

Download on the App Store